Weather History for KLWT - April, 2014

Change the Weather History Date:

Friday, April 18, 2014

  Actual Average Record
Temperature  
Mean Temperature 46 °F 42 °F  
Max Temperature 57 °F 54 °F 81 °F (1936)
Min Temperature 34 °F 30 °F 5 °F (1951)
Degree Days  
Heating Degree Days 19 23  
Month to date heating degree days 469 454  
Since 1 July heating degree days 7642 7253  
Cooling Degree Days 0 0  
Month to date cooling degree days 0 0  
Year to date cooling degree days 0 0  
Moisture  
Dew Point 29 °F    
Average Humidity 52    
Maximum Humidity 76    
Minimum Humidity 28    
Precipitation  
Precipitation 0.02 in 0.04 in 1.03 in (2005)
Month to date precipitation 0.35 0.76  
Year to date precipitation 3.10 2.76  
Snow  
Snow 0.00 in - - ()
Snow Depth 0.00 in    
Sea Level Pressure  
Sea Level Pressure 29.72 in    
Wind  
Wind Speed 13 mph (WSW)    
Max Wind Speed 40 mph    
Max Gust Speed 55 mph    
Visibility 10 miles    
Events Rain    
T = Trace of Precipitation, MM = Missing Value Source: NWS Daily Summary

Daily Weather History Graph

Daily Weather History Graph

Search for Another Location

Airport or City:

Trip Planner

Search our weather history database for the weather conditions in past years. The results will help you decide how hot, cold, wet, or windy it might be!

Date:

Astronomy

Apr. 18, 2014 Rise Set
Actual Time 6:24 AM MDT 8:10 PM MDT
Civil Twilight 5:52 AM MDT 8:43 PM MDT
Nautical Twilight 5:12 AM MDT 9:22 PM MDT
Astronomical Twilight 4:29 AM MDT 10:06 PM MDT
Moon No Moon Rise 8:40 AM MDT (4/18)
Length of Visible Light 14h 51m
Length of Day
13h 46m
Waning Gibbous, 86% of the Moon is Illuminated
Apr 18
Waning Gibbous
Apr 22
Last Quarter
Apr 29
New
May 6
First Quarter
May 14
Full

Hourly Weather History & Observations

Time (MDT) Temp. Windchill Dew Point Humidity Pressure Visibility Wind Dir Wind Speed Gust Speed Precip Events Conditions
12:54 AM 44.1 °F 38.6 °F 34.0 °F 68% 29.70 in 10.0 mi ESE 10.4 mph - N/A   Overcast
1:54 AM 43.0 °F 38.2 °F 32.0 °F 65% 29.68 in 10.0 mi East 8.1 mph - N/A   Partly Cloudy
2:54 AM 43.0 °F 37.7 °F 32.0 °F 65% 29.65 in 10.0 mi East 9.2 mph - N/A   Scattered Clouds
3:54 AM 45.0 °F 41.8 °F 32.0 °F 60% 29.63 in 10.0 mi ESE 5.8 mph - N/A   Overcast
4:54 AM 42.1 °F 40.2 °F 33.1 °F 70% 29.66 in 10.0 mi South 3.5 mph - N/A   Overcast
5:54 AM 43.0 °F 36.8 °F 33.1 °F 68% 29.68 in 10.0 mi WSW 11.5 mph - N/A   Overcast
6:54 AM 44.1 °F 41.5 °F 37.0 °F 76% 29.66 in 10.0 mi West 4.6 mph - N/A   Overcast
7:54 AM 46.0 °F 40.6 °F 37.0 °F 71% 29.64 in 10.0 mi SSW 11.5 mph - N/A   Overcast
8:54 AM 48.0 °F - 36.0 °F 63% 29.65 in 10.0 mi WSW 15.0 mph - N/A   Overcast
9:54 AM 48.9 °F - 36.0 °F 61% 29.68 in 10.0 mi West 8.1 mph - N/A   Overcast
10:54 AM 48.9 °F - 36.0 °F 61% 29.69 in 10.0 mi West 6.9 mph - 0.00 in   Overcast
11:54 AM 50.0 °F - 35.1 °F 57% 29.67 in 10.0 mi WSW 5.8 mph - 0.00 in   Overcast
12:54 PM 51.1 °F - 34.0 °F 52% 29.66 in 10.0 mi West 12.7 mph - N/A   Partly Cloudy
1:54 PM 54.0 °F - 30.9 °F 41% 29.66 in 10.0 mi NNW 9.2 mph - N/A   Scattered Clouds
2:54 PM 53.1 °F - 28.9 °F 40% 29.66 in 10.0 mi WNW 12.7 mph - N/A   Mostly Cloudy
3:54 PM 37.9 °F 28.9 °F 32.0 °F 79% 29.78 in 10.0 mi NW 16.1 mph 32.2 mph 0.00 in Rain Light Rain
4:39 PM 37.9 °F - 32.0 °F 79% 29.76 in 7.0 mi Calm Calm - 0.02 in Rain Light Rain
4:54 PM 41.0 °F 36.4 °F 32.0 °F 70% 29.79 in 10.0 mi Variable 6.9 mph - 0.02 in   Overcast
5:54 PM 46.9 °F - 21.0 °F 36% 29.76 in 10.0 mi West 24.2 mph 32.2 mph N/A   Mostly Cloudy
6:54 PM 45.0 °F 34.7 °F 14.0 °F 29% 29.78 in 10.0 mi West 33.4 mph 41.4 mph N/A   Scattered Clouds
7:54 PM 42.1 °F 33.1 °F 16.0 °F 35% 29.81 in 10.0 mi West 20.7 mph 26.5 mph N/A   Clear
8:54 PM 37.9 °F 28.5 °F 18.0 °F 45% 29.84 in 10.0 mi West 17.3 mph - N/A   Clear
9:54 PM 37.0 °F 26.7 °F 17.1 °F 44% 29.86 in 10.0 mi WSW 19.6 mph - N/A   Clear
10:54 PM 34.0 °F 23.4 °F 17.1 °F 50% 29.88 in 10.0 mi SW 17.3 mph - N/A   Clear
11:54 PM 36.0 °F 26.0 °F 16.0 °F 44% 29.88 in 10.0 mi WSW 17.3 mph - N/A   Clear